Regional Weather Roundup
Issued by NWS

Home | Current Version | Previous Version | Graphics & Text | Print | Product List | Glossary Off
Versions: 1 2 3 4 5 6 7 8 9 10 11 12 13 14 15 16 17 18 19 20 21 22 23 24 25 26 27 28 29 30 31 32 33 34 35 36 37 38 39 40 41 42 43 44 45 46 47 48 49 50

000
ASUS43 KDTX 202010
RWRMI
MICHIGAN HOURLY REGIONAL WEATHER ROUNDUP
NATIONAL WEATHER SERVICE DETROIT/PONTIAC MI
ISSUED BY NATIONAL WEATHER SERVICE GRAND RAPIDS MI
400 PM EDT THU JUL 20 2017

NOTE: "FAIR" INDICATES FEW OR NO CLOUDS BELOW 12,000 FEET WITH NO
SIGNIFICANT WEATHER AND/OR OBSTRUCTION TO VISIBILITY.

MIZ047>049-052>055-059>063-066>070-074>076-081>083-202100-
SOUTHEAST LOWER MICHIGAN

CITY           SKY/WX    TMP DP  RH WIND       PRES   REMARKS
ADRIAN         MOSUNNY   84  69  60 VRB5      29.99F
ALMA           CLOUDY    84  68  58 SW7       29.95S
ANN ARBOR      PTSUNNY   85  70  60 VRB6      29.98F
BAD AXE        CLOUDY    82  68  62 W3        29.94S
DETROIT CITY   CLOUDY    84  64  50 W15       29.97S
DETROIT        CLOUDY    83  68  60 SW10      29.99R
FLINT          CLOUDY    81  68  64 SW6       29.97F
GROSSE ILE     PTSUNNY   85  67  55 W10       29.97S
HILLSDALE      PTSUNNY   81  68  65 W6        30.00S
HOWELL         PTSUNNY   81  68  63 S5        29.98F

CITY           SKY/WX    TMP DP  RH WIND       PRES   REMARKS
JACKSON        PTSUNNY   83  69  62 VRB3      29.98F
LANSING        CLOUDY    82  68  62 W6        29.97F
MASON          MOSUNNY   81  70  69 CALM      29.97F
MONROE         CLOUDY    82  70  67 CALM      29.98F
MT. CLEMENS    MOSUNNY   87  67  51 W15       29.95S
PONTIAC        CLOUDY    80  67  64 W12       29.98S
PORT HOPE        N/A     74  69  85 E13       29.92S
PORT HURON     MOSUNNY   88  66  48 W6        29.95S HX  90
TRI CITIES     PTSUNNY   86  70  58 W14       29.93F HX  90
YPSILANTI      CLOUDY    83  70  64 SW8       29.99S
$$
MIZ043>046-050>051-056>058-064>065-071>073-077>080-202100-
SOUTHWEST LOWER MICHIGAN

CITY           SKY/WX    TMP DP  RH WIND       PRES   REMARKS
BATTLE CREEK   CLOUDY    84  71  65 W10       29.98F
BENTON HARBOR  SUNNY     81  68  64 NW6       29.98S
BIG RAPIDS     PTSUNNY   83  64  53 NW7       29.95R
COLDWATER      CLOUDY    83  71  66 W8        29.99S
HOLLAND        SUNNY     79  69  71 W8        29.98F
GRAND RAPIDS   PTSUNNY   83  70  64 W9        29.96F
KALAMAZOO      PTSUNNY   86  68  54 W14       29.97F
MARSHALL       CLOUDY    85  71  63 W9        29.97F HX  91
MOUNT PLEASANT PTSUNNY   87  64  46 W7        29.93S
MUSKEGON       PTSUNNY   78  66  66 SW8       29.97R
STURGIS        PTSUNNY   83  72  68 W5        29.98F
$$
MIZ016>042-202100-
NORTHERN LOWER MICHIGAN

CITY           SKY/WX    TMP DP  RH WIND       PRES   REMARKS
ALPENA         CLOUDY    80  69  69 E10       29.90S
BEAVER ISLAND  SUNNY     77  63  61 SW9       29.93S
BELLAIRE       MOSUNNY   80  62  54 W5        29.93S
CADILLAC       SUNNY     85  64  48 W13G18    29.96S
CHARLEVOIX     SUNNY     77  65  66 W14       29.97S
GAYLORD        CLOUDY    81  60  48 W16G22    29.95S
HOUGHTON LAKE  SUNNY     84  64  50 W14       29.95S
MANISTEE       SUNNY     80  69  69 NW10      29.94S
OSCODA         CLOUDY    79  65  63 SE10      29.90S
PELLSTON       SUNNY     81  55  40 W9G18     29.93R
TRAVERSE CITY  PTSUNNY   85  64  49 NW9       29.92S
LUDINGTON      MOSUNNY   80  69  69 SW8       29.94S
$$
MIZ007>008-015-202100-
EASTERN UPPER MICHIGAN

CITY           SKY/WX    TMP DP  RH WIND       PRES   REMARKS
KINROSS        SUNNY     79  59  50 N16       29.90R
MACKINAC ISLAN SUNNY     73  64  73 SW12G18   29.91S
NEWBERRY       SUNNY     80  61  51 W12G18    29.92R
S. S. MARIE    SUNNY     82  58  43 NW12      29.89S
$$
MIZ004>006-011>014-085-202100-
CENTRAL UPPER MICHIGAN

CITY           SKY/WX    TMP DP  RH WIND       PRES   REMARKS
MANISTIQUE     SUNNY     83  59  43 NW12      29.91R
ESCANABA       MOSUNNY   86  62  44 NW7       29.90S
MENOMINEE      CLOUDY    84  66  54 VRB5      29.93F
SAWYER-GWINN   MOSUNNY   79  63  57 NE6       29.94S
$$
MIZ001>003-009>011-084-202100-
WESTERN UPPER MICHIGAN

CITY           SKY/WX    TMP DP  RH WIND       PRES   REMARKS
IRON MOUNTAIN  MOSUNNY   87  60  40 NW13      29.93F
HOUGHTON       SUNNY     77  62  59 W14       29.95S
COPPER HARBOR    N/A     66  56  70 N12       29.92S
IRONWOOD       SUNNY     79  64  60 NW9       30.00R
$$

ABBREVIATIONS USED IN REMARKS
   TC - TEMPERATURE IN CELSIUS
  WCI - WIND CHILL INDEX
   HX - HEAT INDEX
  VSB - VISIBILITY





USA.gov is the U.S. government's official web portal to all federal, state and local government web resources and services.